STARLINK-33678 (63509 NORAD) Tracking and Keplerian Element Data

This shows tracking and keplerian element data for the satellite.

Feedback or suggestion? Click here.




ElementValue
Catalog63509
NameSTARLINK-33678
Epoch Orbit4025
Epoch Day353.70822704
Epoch Year2025
RAAN151.442
Inclination53.1588
Eccentricity0.0001328
Argument of Perigee100.6824
Mean Anonmoly259.4327
Mean Motion15.30209484
Decay Rate0.00024288
L11 63509U 25071S 25353.70822704 .00024288 00000+0 82924-3 0 9997
L22 63509 53.1588 151.4420 0001328 100.6824 259.4327 15.30209484 40256



Live tracking and technical data element details for STARLINK-33678 (NORAD 63509). STARLINK-33678 can be tracked NOW for your location showing map with azimuth and elevation plus other details from your city location.







IsCatalogInMostPopularTable: catalog: 63509, numindb: 5
Update: records affected: 1



GetName: 63509 STARLINK-33678

Hit Count: updated at: Tue, 21 Apr 2026 19:54:26 GMT